388  
SXUS52 KJAX 150114  
OSOJAX  
OTHER SURFACE OBSERVATIONS  
NATIONAL WEATHER SERVICE JACKSONVILLE FL  
900 PM EDT FRI AUG 14 2020  
 
FLZ020>025-030>033-035>038-040-150200-   
..FLORIDA
 
 
 
CITY SKY/WX TMP DP RH WIND PRES REMARKS  
CECIL FIELD CLEAR 79 73 83 VRB5 29.96R  
HERLONG FIELD NOT AVBL  
FERNANDINA BCH NOT AVBL  
LAKE CITY FAIR 73 73 100 CALM 29.97S  
JUNIPER SPGS NOT AVBL  
BUNNELL NOT AVBL  
KEYSTONE HGTS MOCLDY 79 73 83 CALM 29.97S  

 
 
GAZ132>136-149>154-162>166-150200-   
..GEORGIA
 
 
 
CITY SKY/WX TMP DP RH WIND PRES REMARKS  
JESUP FAIR 81 73 78 CALM 29.95R  
HOMERVILLE FAIR 81 75 83 SE6 29.95S  
SWAINSBORO FAIR 79 77 94 CALM 29.95R  
CORDELE NOT AVBL  
EASTMAN FAIR 75 73 95 CALM 29.96S  

 
 
PLEASE NOTE: THESE OBSERVATIONS ARE NOT QUALITY CONTROLLED AND MAY  
NOT BE AVAILABLE AT ALL TIMES.  

 
 
 
CLICK HERE TO GO TO PREVIOUS BULLETINS.

The Nexlab FL Page
The Nexlab GA Page Main Text Page